Regional Weather Roundup
Issued by NWS Charleston, WV

Home | Current Version | Previous Version | Graphics & Text | Print | Product List | Glossary On
Versions: 1 2 3 4 5 6 7 8 9 10 11 12 13 14 15 16 17 18 19 20 21 22 23 24 25 26 27
000
ASUS41 KRLX 040410
RWRRLX
West Virginia Regional Weather Roundup
National Weather Service Charleston WV
1200 AM EDT WED MAY 04 2016

Note: "fair" indicates few or no clouds below 12,000 feet with no
significant weather and/or obstructions to visibility.

WVZ003-040500-
Northern Panhandle of West Virginia

CITY           SKY/WX    TMP DP  RH WIND       PRES   REMARKS
WHEELING       CLOUDY    54  42  64 W7        29.80F
$$

WVZ009-040500-
Northwest West Virginia

CITY           SKY/WX    TMP DP  RH WIND       PRES   REMARKS
PARKERSBURG      N/A    N/A N/A N/A MISG        N/A
$$

WVZ006-040500-
Western West Virginia

CITY           SKY/WX    TMP DP  RH WIND       PRES   REMARKS
HUNTINGTON     CLOUDY    54  51  90 SW3       29.84F
$$

WVZ015-040500-
West Central West Virginia

CITY           SKY/WX    TMP DP  RH WIND       PRES   REMARKS
CHARLESTON     MOCLDY    56  53  90 CALM      29.83F
$$

WVZ022-031-040500-
North Central West Virginia

CITY           SKY/WX    TMP DP  RH WIND       PRES   REMARKS
CLARKSBURG     MOCLDY    51  49  92 CALM      29.82F
MORGANTOWN     CLOUDY    54  49  83 CALM      29.82F
$$

WVZ025-035-042-045-040500-
Southern West Virginia

CITY           SKY/WX    TMP DP  RH WIND       PRES   REMARKS
BECKLEY        MOCLDY    50  48  93 CALM      29.85F
LOGAN          NOT AVBL
BLUEFIELD        N/A     50  44  80 W6        29.86F
LEWISBURG      CLOUDY    52  46  82 CALM      29.83F
$$

WVZ047-040500-
Northern Mountains of West Virginia

CITY           SKY/WX    TMP DP  RH WIND       PRES   REMARKS
ELKINS           N/A     49  46  90 CALM      29.83F
$$

WVZ052-040500-
Eastern Panhandle of West Virginia

CITY           SKY/WX    TMP DP  RH WIND       PRES   REMARKS
MARTINSBURG    CLOUDY    59  57  93 CALM      29.77F
PETERSBURG     MOCLDY    58  53  83 CALM      29.80F
$$




USA.gov is the U.S. government's official web portal to all federal, state and local government web resources and services.